Location: Cork
(51.8990°N, 8.4960°W)
Time: 00:16:04
(UTC+01:00)

Iridium 66 - Visible Passes

Search period start: 06 July 2015 00:00
Search period end: 16 July 2015 00:00
Orbit: 776 x 779 km, 86.4° (Epoch: 05 July)

Date Brightness Start Highest point End Pass type
(mag) Time Alt. Az. Time Alt. Az. Time Alt. Az.
06 Jul 7.5 04:11:31 10° N 04:16:21 37° ENE 04:21:13 10° SE visible
07 Jul 8.3 03:38:22 10° NNE 03:42:31 24° ENE 03:46:44 10° SE visible
08 Jul 8.7 03:05:39 10° NNE 03:08:31 15° ENE 03:11:33 10° E visible
09 Jul 6.9 04:11:30 10° N 04:16:36 51° E 04:21:41 10° SSE visible
10 Jul 7.8 03:38:13 10° NNE 03:42:50 31° ENE 03:47:29 10° SE visible
11 Jul 8.4 03:05:12 10° NNE 03:08:55 20° ENE 03:12:46 10° ESE visible
12 Jul 8.7 02:32:51 10° NE 02:34:52 12° ENE 02:37:07 10° E visible
12 Jul 6.4 04:11:33 10° N 04:16:47 69° E 04:21:59 10° SSE visible
13 Jul 7.2 03:38:10 10° N 03:43:06 41° ENE 03:48:03 10° SSE visible
14 Jul 8.0 03:04:57 10° NNE 03:09:17 26° ENE 03:13:40 10° SE visible
14 Jul 6.3 04:45:18 10° NNW 04:50:23 54° W 04:55:27 10° SSW visible
15 Jul 8.5 02:32:07 10° NNE 02:35:18 17° ENE 02:38:40 10° ESE visible
15 Jul 6.1 04:11:39 10° N 04:16:55 88° WSW 04:22:09 10° S visible
